Time,TemperatureF,DewpointF,PressureIn,WindDirection,WindDirectionDegrees,WindSpeedMPH,WindSpeedGustMPH,Humidity,HourlyPrecipIn,Conditions,Clouds,dailyrainin,SolarRadiationWatts/m^2,SoftwareType,DateUTC
2013-02-23 00:19:00,29.6,25.6,30.14,ENE,71,1.0,4.0,85,0.00,,CLR,0.00,0.00,VWS V14.01,2013-02-23 05:19:00,
2013-02-23 00:24:00,29.6,25.6,30.13,ENE,68,0.0,4.0,85,0.00,,CLR,0.00,0.00,VWS V14.01,2013-02-23 05:24:00,
2013-02-23 00:29:00,29.6,25.6,30.13,NE,56,1.0,3.0,85,0.00,,CLR,0.00,0.00,VWS V14.01,2013-02-23 05:29:00,
2013-02-23 00:34:00,29.6,25.6,30.13,ENE,66,0.0,7.0,85,0.00,,CLR,0.00,0.00,VWS V14.01,2013-02-23 05:34:00,
2013-02-23 00:39:00,29.6,25.6,30.13,SE,136,2.0,6.0,85,0.00,,CLR,0.00,0.00,VWS V14.01,2013-02-23 05:39:00,
2013-02-23 00:44:00,29.6,25.6,30.13,ENE,78,3.0,6.0,85,0.00,,CLR,0.00,0.00,VWS V14.01,2013-02-23 05:44:00,
2013-02-23 00:49:00,29.6,25.6,30.13,ENE,66,4.0,5.0,85,0.00,,CLR,0.00,0.00,VWS V14.01,2013-02-23 05:49:00,
2013-02-23 00:54:00,29.6,25.6,30.13,ENE,64,0.0,5.0,85,0.00,,CLR,0.00,0.00,VWS V14.01,2013-02-23 05:54:00,
2013-02-23 00:59:00,29.6,25.6,30.13,East,95,0.0,1.0,85,0.00,,CLR,0.00,0.00,VWS V14.01,2013-02-23 05:59:00,
2013-02-23 01:05:00,29.6,25.6,30.13,East,83,2.0,2.0,85,0.00,,CLR,0.00,0.00,VWS V14.01,2013-02-23 06:05:00,
2013-02-23 01:10:00,29.6,25.6,30.13,NE,49,1.0,2.0,85,0.00,,CLR,0.00,0.00,VWS V14.01,2013-02-23 06:10:00,
2013-02-23 01:15:00,29.6,25.6,30.13,NE,56,3.0,3.0,85,0.00,,CLR,0.00,0.00,VWS V14.01,2013-02-23 06:15:00,
2013-02-23 01:20:00,29.6,25.6,30.14,East,83,1.0,3.0,85,0.00,,CLR,0.00,0.00,VWS V14.01,2013-02-23 06:20:00,
2013-02-23 01:25:00,29.6,25.6,30.14,East,85,0.0,3.0,85,0.00,,CLR,0.00,0.00,VWS V14.01,2013-02-23 06:25:00,
2013-02-23 01:30:00,29.6,25.6,30.14,East,95,1.0,3.0,85,0.00,,CLR,0.00,0.00,VWS V14.01,2013-02-23 06:30:00,
2013-02-23 01:35:00,29.6,25.6,30.12,ESE,103,0.0,3.0,85,0.00,,CLR,0.00,0.00,VWS V14.01,2013-02-23 06:35:00,
2013-02-23 01:40:00,29.6,25.6,30.12,NE,55,3.0,5.0,85,0.00,,CLR,0.00,0.00,VWS V14.01,2013-02-23 06:40:00,
2013-02-23 01:45:00,29.6,25.6,30.12,ENE,75,0.0,0.0,85,0.00,,CLR,0.00,0.00,VWS V14.01,2013-02-23 06:45:00,
2013-02-23 01:50:00,29.6,25.6,30.13,ENE,62,0.0,3.0,85,0.00,,CLR,0.00,0.00,VWS V14.01,2013-02-23 06:50:00,
2013-02-23 01:56:00,29.6,25.6,30.13,East,85,2.0,2.0,85,0.00,,CLR,0.00,0.00,VWS V14.01,2013-02-23 06:56:00,
2013-02-23 02:01:00,29.6,25.6,30.13,East,86,0.0,2.0,85,0.00,,CLR,0.00,0.00,VWS V14.01,2013-02-23 07:01:00,
2013-02-23 02:06:00,29.6,25.6,30.12,East,90,0.0,2.0,85,0.00,,CLR,0.00,0.00,VWS V14.01,2013-02-23 07:06:00,
2013-02-23 02:11:00,29.6,25.6,30.12,East,90,0.0,3.0,85,0.00,,CLR,0.00,0.00,VWS V14.01,2013-02-23 07:11:00,
2013-02-23 02:16:00,29.6,25.6,30.12,East,89,0.0,0.0,85,0.00,,CLR,0.00,0.00,VWS V14.01,2013-02-23 07:16:00,
2013-02-23 02:21:00,29.6,25.6,30.11,East,89,0.0,0.0,85,0.00,,CLR,0.00,0.00,VWS V14.01,2013-02-23 07:21:00,
2013-02-23 02:26:00,29.6,25.6,30.11,East,89,0.0,0.0,85,0.00,,CLR,0.00,0.00,VWS V14.01,2013-02-23 07:26:00,
2013-02-23 02:31:00,29.6,25.6,30.11,East,92,2.0,3.0,85,0.00,,CLR,0.00,0.00,VWS V14.01,2013-02-23 07:31:00,
2013-02-23 02:36:00,29.6,25.6,30.10,ENE,73,1.0,3.0,85,0.00,,CLR,0.00,0.00,VWS V14.01,2013-02-23 07:36:00,
2013-02-23 02:41:00,29.6,25.6,30.10,ENE,68,3.0,3.0,85,0.00,,CLR,0.00,0.00,VWS V14.01,2013-02-23 07:41:00,
2013-02-23 02:46:00,29.6,25.6,30.10,ESE,106,0.0,0.0,85,0.00,,CLR,0.00,0.00,VWS V14.01,2013-02-23 07:46:00,
2013-02-23 02:51:00,29.6,25.6,30.10,ESE,107,0.0,2.0,85,0.00,,CLR,0.00,0.00,VWS V14.01,2013-02-23 07:51:00,
2013-02-23 02:56:00,29.6,25.6,30.10,ESE,107,0.0,0.0,85,0.00,,CLR,0.00,0.00,VWS V14.01,2013-02-23 07:56:00,
2013-02-23 03:02:00,29.6,25.6,30.10,East,95,0.0,2.0,85,0.00,,CLR,0.00,0.00,VWS V14.01,2013-02-23 08:02:00,
2013-02-23 03:07:00,29.6,25.6,30.09,East,95,0.0,1.0,85,0.00,,CLR,0.00,0.00,VWS V14.01,2013-02-23 08:07:00,
2013-02-23 03:12:00,29.4,25.5,30.09,NE,47,1.0,3.0,85,0.00,,CLR,0.00,0.00,VWS V14.01,2013-02-23 08:12:00,
2013-02-23 03:17:00,29.4,25.5,30.09,ENE,71,0.0,2.0,85,0.00,,CLR,0.00,0.00,VWS V14.01,2013-02-23 08:17:00,
2013-02-23 03:22:00,29.4,25.5,30.09,East,99,1.0,2.0,85,0.00,,CLR,0.00,0.00,VWS V14.01,2013-02-23 08:22:00,
2013-02-23 03:27:00,29.4,25.5,30.09,East,99,0.0,0.0,85,0.00,,CLR,0.00,0.00,VWS V14.01,2013-02-23 08:27:00,
2013-02-23 03:32:00,29.4,25.5,30.09,ENE,71,1.0,2.0,85,0.00,,CLR,0.00,0.00,VWS V14.01,2013-02-23 08:32:00,
2013-02-23 03:37:00,29.4,25.7,30.08,ENE,71,0.0,0.0,86,0.00,,CLR,0.00,0.00,VWS V14.01,2013-02-23 08:37:00,
2013-02-23 03:42:00,29.4,25.7,30.08,ESE,103,0.0,2.0,86,0.00,,CLR,0.00,0.00,VWS V14.01,2013-02-23 08:42:00,
2013-02-23 03:47:00,29.4,25.7,30.08,ESE,109,0.0,0.0,86,0.00,,CLR,0.00,0.00,VWS V14.01,2013-02-23 08:47:00,
2013-02-23 03:52:00,29.4,25.7,30.08,ESE,112,0.0,0.0,86,0.00,,CLR,0.00,0.00,VWS V14.01,2013-02-23 08:52:00,
2013-02-23 03:57:00,29.4,25.7,30.08,ESE,112,0.0,0.0,86,0.00,,CLR,0.00,0.00,VWS V14.01,2013-02-23 08:57:00,
2013-02-23 04:03:00,29.4,25.7,30.08,ESE,110,0.0,2.0,86,0.00,,CLR,0.00,0.00,VWS V14.01,2013-02-23 09:03:00,
2013-02-23 04:08:00,29.4,25.7,30.08,ESE,110,0.0,0.0,86,0.00,,CLR,0.00,0.00,VWS V14.01,2013-02-23 09:08:00,
2013-02-23 04:13:00,29.4,25.7,30.08,ESE,110,0.0,0.0,86,0.00,,CLR,0.00,0.00,VWS V14.01,2013-02-23 09:13:00,
2013-02-23 04:18:00,29.4,25.7,30.08,ESE,110,0.0,0.0,86,0.00,,CLR,0.00,0.00,VWS V14.01,2013-02-23 09:18:00,
2013-02-23 04:23:00,29.4,25.7,30.08,ESE,114,0.0,1.0,86,0.00,,CLR,0.00,0.00,VWS V14.01,2013-02-23 09:23:00,
2013-02-23 04:28:00,29.4,25.7,30.08,ESE,120,0.0,1.0,86,0.00,,CLR,0.00,0.00,VWS V14.01,2013-02-23 09:28:00,
2013-02-23 04:33:00,29.4,25.7,30.08,ESE,113,0.0,1.0,86,0.00,,CLR,0.00,0.00,VWS V14.01,2013-02-23 09:33:00,
2013-02-23 04:38:00,29.4,25.7,30.07,ESE,116,0.0,2.0,86,0.00,,CLR,0.00,0.00,VWS V14.01,2013-02-23 09:38:00,
2013-02-23 04:43:00,29.4,25.7,30.07,ESE,120,0.0,2.0,86,0.00,,CLR,0.00,0.00,VWS V14.01,2013-02-23 09:43:00,
2013-02-23 04:48:00,29.4,25.7,30.07,ESE,120,0.0,0.0,86,0.00,,CLR,0.00,0.00,VWS V14.01,2013-02-23 09:48:00,
2013-02-23 04:53:00,29.4,25.7,30.07,ESE,120,0.0,0.0,86,0.00,,CLR,0.00,0.00,VWS V14.01,2013-02-23 09:53:00,
2013-02-23 04:59:00,29.4,25.7,30.07,ESE,120,0.0,0.0,86,0.00,,CLR,0.00,0.00,VWS V14.01,2013-02-23 09:59:00,
2013-02-23 05:04:00,29.4,25.7,30.07,ESE,120,0.0,0.0,86,0.00,,CLR,0.00,0.00,VWS V14.01,2013-02-23 10:04:00,
2013-02-23 05:09:00,29.3,25.6,30.08,ESE,120,0.0,0.0,86,0.00,,CLR,0.00,0.00,VWS V14.01,2013-02-23 10:09:00,
2013-02-23 05:14:00,29.3,25.6,30.08,ESE,120,0.0,0.0,86,0.00,,CLR,0.00,0.00,VWS V14.01,2013-02-23 10:14:00,
2013-02-23 05:19:00,29.3,25.6,30.08,ESE,120,0.0,0.0,86,0.00,,CLR,0.00,0.00,VWS V14.01,2013-02-23 10:19:00,
2013-02-23 05:24:00,29.3,25.6,30.07,ESE,120,0.0,0.0,86,0.00,,CLR,0.00,0.00,VWS V14.01,2013-02-23 10:24:00,
2013-02-23 05:29:00,29.3,25.6,30.07,ESE,120,0.0,0.0,86,0.00,,CLR,0.00,0.00,VWS V14.01,2013-02-23 10:29:00,
2013-02-23 05:34:00,29.3,25.6,30.07,ESE,120,0.0,0.0,86,0.00,,CLR,0.00,0.00,VWS V14.01,2013-02-23 10:34:00,
2013-02-23 05:39:00,29.3,25.6,30.08,ESE,121,0.0,0.0,86,0.00,,CLR,0.00,0.00,VWS V14.01,2013-02-23 10:39:00,
2013-02-23 05:44:00,29.3,25.6,30.08,SE,143,0.0,0.0,86,0.00,,CLR,0.00,0.00,VWS V14.01,2013-02-23 10:44:00,
2013-02-23 05:49:00,29.3,25.6,30.07,SE,143,0.0,0.0,86,0.00,,CLR,0.00,0.00,VWS V14.01,2013-02-23 10:49:00,
2013-02-23 05:55:00,29.3,25.6,30.07,SE,143,0.0,0.0,86,0.00,,CLR,0.00,0.00,VWS V14.01,2013-02-23 10:55:00,
2013-02-23 06:00:00,29.3,25.6,30.07,ENE,68,0.0,2.0,86,0.00,,CLR,0.00,0.00,VWS V14.01,2013-02-23 11:00:00,
2013-02-23 06:05:00,29.3,25.6,30.07,SE,131,0.0,2.0,86,0.00,,CLR,0.00,0.00,VWS V14.01,2013-02-23 11:05:00,
2013-02-23 06:10:00,29.1,25.4,30.07,SE,131,0.0,0.0,86,0.00,,CLR,0.00,0.00,VWS V14.01,2013-02-23 11:10:00,
2013-02-23 06:15:00,29.1,25.4,30.07,SSE,150,0.0,1.0,86,0.00,,CLR,0.00,0.00,VWS V14.01,2013-02-23 11:15:00,
2013-02-23 06:20:00,29.1,25.4,30.07,SSE,150,0.0,0.0,86,0.00,,CLR,0.00,0.00,VWS V14.01,2013-02-23 11:20:00,
2013-02-23 06:25:00,29.1,25.4,30.07,SSE,150,0.0,0.0,86,0.00,,CLR,0.00,0.00,VWS V14.01,2013-02-23 11:25:00,
2013-02-23 06:30:00,29.1,25.4,30.07,SSE,150,0.0,0.0,86,0.00,,CLR,0.00,0.00,VWS V14.01,2013-02-23 11:30:00,
2013-02-23 06:35:00,29.1,25.7,30.07,SSE,150,0.0,0.0,87,0.00,,CLR,0.00,0.00,VWS V14.01,2013-02-23 11:35:00,
2013-02-23 06:40:00,29.1,25.7,30.07,SSE,150,0.0,0.0,87,0.00,,CLR,0.00,0.00,VWS V14.01,2013-02-23 11:40:00,
2013-02-23 06:45:00,29.0,25.6,30.07,SSE,150,0.0,0.0,87,0.00,,CLR,0.00,0.00,VWS V14.01,2013-02-23 11:45:00,
2013-02-23 06:50:00,29.0,25.6,30.07,SSE,150,0.0,0.0,87,0.00,,CLR,0.00,0.00,VWS V14.01,2013-02-23 11:50:00,
2013-02-23 06:56:00,29.0,25.6,30.07,SSE,148,0.0,0.0,87,0.00,,CLR,0.00,0.00,VWS V14.01,2013-02-23 11:56:00,
2013-02-23 07:01:00,29.0,25.6,30.07,SSE,148,0.0,0.0,87,0.00,,CLR,0.00,0.00,VWS V14.01,2013-02-23 12:01:00,
2013-02-23 07:06:00,29.0,25.6,30.06,SSE,148,0.0,0.0,87,0.00,,CLR,0.00,0.00,VWS V14.01,2013-02-23 12:06:00,
2013-02-23 07:11:00,29.0,25.6,30.06,SSE,148,0.0,0.0,87,0.00,,CLR,0.00,7.00,VWS V14.01,2013-02-23 12:11:00,
2013-02-23 07:16:00,29.0,25.6,30.06,SSE,148,0.0,0.0,87,0.00,,CLR,0.00,9.00,VWS V14.01,2013-02-23 12:16:00,
2013-02-23 07:21:00,29.0,25.6,30.05,SSE,148,0.0,0.0,87,0.00,,CLR,0.00,12.00,VWS V14.01,2013-02-23 12:21:00,
2013-02-23 07:26:00,29.0,25.6,30.05,SSE,148,0.0,0.0,87,0.00,,CLR,0.00,16.00,VWS V14.01,2013-02-23 12:26:00,
2013-02-23 07:31:00,29.0,25.6,30.05,SSE,148,0.0,0.0,87,0.00,,CLR,0.00,19.00,VWS V14.01,2013-02-23 12:31:00,
2013-02-23 07:36:00,28.8,25.4,30.05,SSE,148,0.0,0.0,87,0.00,,CLR,0.00,21.00,VWS V14.01,2013-02-23 12:36:00,
2013-02-23 07:41:00,29.0,25.9,30.05,SSE,148,0.0,0.0,88,0.00,,CLR,0.00,28.00,VWS V14.01,2013-02-23 12:41:00,
2013-02-23 07:46:00,29.0,25.9,30.05,SSE,148,0.0,0.0,88,0.00,,CLR,0.00,32.00,VWS V14.01,2013-02-23 12:46:00,
2013-02-23 07:52:00,29.0,25.9,30.05,SSE,148,0.0,0.0,88,0.00,,CLR,0.00,42.00,VWS V14.01,2013-02-23 12:52:00,
2013-02-23 07:57:00,29.1,26.0,30.05,SSE,148,0.0,0.0,88,0.00,,CLR,0.00,44.00,VWS V14.01,2013-02-23 12:57:00,
2013-02-23 08:02:00,29.1,26.0,30.05,SSE,148,0.0,0.0,88,0.00,,CLR,0.00,51.00,VWS V14.01,2013-02-23 13:02:00,
2013-02-23 08:07:00,29.1,26.0,30.06,SSE,148,0.0,0.0,88,0.00,,CLR,0.00,62.00,VWS V14.01,2013-02-23 13:07:00,
2013-02-23 08:12:00,29.3,26.2,30.06,SSE,148,0.0,0.0,88,0.00,,CLR,0.00,58.00,VWS V14.01,2013-02-23 13:12:00,
2013-02-23 08:17:00,29.3,26.2,30.06,SSE,148,0.0,0.0,88,0.00,,CLR,0.00,63.00,VWS V14.01,2013-02-23 13:17:00,
2013-02-23 08:22:00,29.3,25.9,30.06,SE,143,0.0,1.0,87,0.00,,CLR,0.00,63.00,VWS V14.01,2013-02-23 13:22:00,
2013-02-23 08:27:00,29.4,26.0,30.06,SE,144,2.0,2.0,87,0.00,,CLR,0.00,65.00,VWS V14.01,2013-02-23 13:27:00,
2013-02-23 08:33:00,29.4,26.0,30.06,SE,143,1.0,3.0,87,0.00,,CLR,0.00,88.00,VWS V14.01,2013-02-23 13:33:00,
2013-02-23 08:38:00,29.6,26.2,30.06,SE,143,0.0,1.0,87,0.00,,CLR,0.00,99.00,VWS V14.01,2013-02-23 13:38:00,
2013-02-23 08:43:00,29.7,26.3,30.06,SE,143,0.0,1.0,87,0.00,,CLR,0.00,111.00,VWS V14.01,2013-02-23 13:43:00,
2013-02-23 08:48:00,29.9,26.5,30.06,SE,143,0.0,0.0,87,0.00,,CLR,0.00,121.00,VWS V14.01,2013-02-23 13:48:00,
2013-02-23 08:53:00,30.0,26.3,30.05,SE,143,0.0,0.0,86,0.00,,CLR,0.00,121.00,VWS V14.01,2013-02-23 13:53:00,
2013-02-23 08:58:00,30.2,26.5,30.05,SE,143,0.0,0.0,86,0.00,,CLR,0.00,146.00,VWS V14.01,2013-02-23 13:58:00,
2013-02-23 09:03:00,30.3,26.6,30.05,SE,143,0.0,0.0,86,0.00,,CLR,0.00,150.00,VWS V14.01,2013-02-23 14:03:00,
2013-02-23 09:08:00,30.5,26.5,30.05,SE,143,0.0,0.0,85,0.00,,CLR,0.00,157.00,VWS V14.01,2013-02-23 14:08:00,
2013-02-23 09:14:00,30.6,26.6,30.05,SE,143,0.0,1.0,85,0.00,,CLR,0.00,153.00,VWS V14.01,2013-02-23 14:14:00,
2013-02-23 09:19:00,30.8,26.8,30.05,NW,306,0.0,0.0,85,0.00,,CLR,0.00,157.00,VWS V14.01,2013-02-23 14:19:00,
2013-02-23 09:24:00,30.9,26.9,30.04,NNE,23,0.0,1.0,85,0.00,,CLR,0.00,176.00,VWS V14.01,2013-02-23 14:24:00,
2013-02-23 09:29:00,31.1,26.8,30.04,NNE,25,0.0,2.0,84,0.00,,CLR,0.00,172.00,VWS V14.01,2013-02-23 14:29:00,
2013-02-23 09:34:00,31.2,26.9,30.04,NNE,25,0.0,2.0,84,0.00,,CLR,0.00,183.00,VWS V14.01,2013-02-23 14:34:00,
2013-02-23 09:39:00,31.4,27.1,30.04,NNE,25,0.0,1.0,84,0.00,,CLR,0.00,192.00,VWS V14.01,2013-02-23 14:39:00,
2013-02-23 09:44:00,31.7,27.4,30.04,NNE,25,0.0,1.0,84,0.00,,CLR,0.00,165.00,VWS V14.01,2013-02-23 14:44:00,
2013-02-23 09:49:00,31.9,27.6,30.04,NNE,25,0.0,0.0,84,0.00,,CLR,0.00,155.00,VWS V14.01,2013-02-23 14:49:00,
2013-02-23 09:54:00,32.1,27.2,30.04,NNE,25,0.0,0.0,82,0.00,,CLR,0.00,195.00,VWS V14.01,2013-02-23 14:54:00,
2013-02-23 09:59:00,32.2,27.3,30.04,NNE,25,0.0,2.0,82,0.00,,CLR,0.00,194.00,VWS V14.01,2013-02-23 14:59:00,
2013-02-23 10:04:00,32.4,27.5,30.03,ENE,73,1.0,5.0,82,0.00,,CLR,0.00,194.00,VWS V14.01,2013-02-23 15:04:00,
2013-02-23 10:09:00,32.5,27.3,30.03,ENE,73,0.0,2.0,81,0.00,,CLR,0.00,204.00,VWS V14.01,2013-02-23 15:09:00,
2013-02-23 10:15:00,32.7,27.2,30.03,NNE,18,0.0,3.0,80,0.00,,CLR,0.00,260.00,VWS V14.01,2013-02-23 15:15:00,
2013-02-23 10:20:00,33.0,27.5,30.02,NNE,18,0.0,2.0,80,0.01,,CLR,0.01,334.00,VWS V14.01,2013-02-23 15:20:00,
2013-02-23 10:25:00,33.6,27.8,30.02,East,86,0.0,2.0,79,0.01,,CLR,0.01,310.00,VWS V14.01,2013-02-23 15:25:00,
2013-02-23 10:30:00,33.9,27.8,30.02,East,85,0.0,3.0,78,0.01,,CLR,0.01,236.00,VWS V14.01,2013-02-23 15:30:00,
2013-02-23 10:35:00,34.0,27.9,30.01,ENE,73,0.0,3.0,78,0.01,,CLR,0.01,241.00,VWS V14.01,2013-02-23 15:35:00,
2013-02-23 10:40:00,34.0,27.9,30.01,ENE,72,1.0,1.0,78,0.01,,CLR,0.01,199.00,VWS V14.01,2013-02-23 15:40:00,
2013-02-23 10:45:00,34.3,28.2,30.01,NNE,30,2.0,2.0,78,0.01,,CLR,0.01,338.00,VWS V14.01,2013-02-23 15:45:00,
2013-02-23 10:50:00,34.5,28.4,30.01,NNE,30,0.0,2.0,78,0.01,,CLR,0.01,276.00,VWS V14.01,2013-02-23 15:50:00,
2013-02-23 10:56:00,34.8,28.3,30.01,NE,49,0.0,2.0,77,0.01,,CLR,0.01,303.00,VWS V14.01,2013-02-23 15:56:00,
2013-02-23 11:01:00,34.9,28.4,30.01,NE,56,1.0,3.0,77,0.01,,CLR,0.01,259.00,VWS V14.01,2013-02-23 16:01:00,
2013-02-23 11:06:00,35.0,28.5,30.01,ENE,65,1.0,1.0,77,0.01,,CLR,0.01,327.00,VWS V14.01,2013-02-23 16:06:00,
2013-02-23 11:11:00,35.3,28.5,30.01,ENE,65,0.0,3.0,76,0.01,,CLR,0.01,285.00,VWS V14.01,2013-02-23 16:11:00,
2013-02-23 11:16:00,35.6,28.8,30.01,ENE,65,1.0,1.0,76,0.01,,CLR,0.01,245.00,VWS V14.01,2013-02-23 16:16:00,
2013-02-23 11:21:00,35.9,29.4,30.00,ENE,64,0.0,3.0,77,0.01,,CLR,0.01,334.00,VWS V14.01,2013-02-23 16:21:00,
2013-02-23 11:26:00,36.0,28.9,30.00,ENE,64,0.0,0.0,75,0.00,,CLR,0.01,318.00,VWS V14.01,2013-02-23 16:26:00,
2013-02-23 11:31:00,36.3,29.1,30.00,East,93,0.0,3.0,75,0.00,,CLR,0.01,315.00,VWS V14.01,2013-02-23 16:31:00,
2013-02-23 11:36:00,36.8,29.6,30.00,East,88,1.0,1.0,75,0.00,,CLR,0.01,303.00,VWS V14.01,2013-02-23 16:36:00,
2013-02-23 11:41:00,37.0,29.8,30.00,ENE,61,0.0,3.0,75,0.00,,CLR,0.01,334.00,VWS V14.01,2013-02-23 16:41:00,
2013-02-23 11:47:00,37.5,30.0,30.00,NE,45,3.0,3.0,74,0.00,,CLR,0.01,350.00,VWS V14.01,2013-02-23 16:47:00,
2013-02-23 11:52:00,37.8,30.3,29.99,East,92,0.0,5.0,74,0.00,,CLR,0.01,317.00,VWS V14.01,2013-02-23 16:52:00,
2013-02-23 11:57:00,37.8,29.9,29.99,NNW,328,1.0,1.0,73,0.00,,CLR,0.01,340.00,VWS V14.01,2013-02-23 16:57:00,
2013-02-23 12:02:00,38.2,30.3,29.99,ENE,62,1.0,3.0,73,0.00,,CLR,0.01,283.00,VWS V14.01,2013-02-23 17:02:00,
2013-02-23 12:07:00,38.2,30.3,29.99,ENE,62,1.0,2.0,73,0.00,,CLR,0.01,260.00,VWS V14.01,2013-02-23 17:07:00,
2013-02-23 12:12:00,38.6,30.7,29.99,ESE,103,0.0,2.0,73,0.00,,CLR,0.01,260.00,VWS V14.01,2013-02-23 17:12:00,
2013-02-23 12:17:00,39.5,31.2,29.99,SSW,203,0.0,0.0,72,0.00,,CLR,0.01,401.00,VWS V14.01,2013-02-23 17:17:00,
2013-02-23 12:22:00,40.2,31.9,29.97,NE,41,1.0,3.0,72,0.00,,CLR,0.01,401.00,VWS V14.01,2013-02-23 17:22:00,
2013-02-23 12:27:00,40.8,32.1,29.97,NW,320,2.0,3.0,71,0.00,,CLR,0.01,818.00,VWS V14.01,2013-02-23 17:27:00,
2013-02-23 12:32:00,41.1,32.1,29.97,NE,41,1.0,5.0,70,0.00,,CLR,0.01,818.00,VWS V14.01,2013-02-23 17:32:00,
2013-02-23 12:37:00,41.3,32.6,29.96,East,82,3.0,3.0,71,0.00,,CLR,0.01,679.00,VWS V14.01,2013-02-23 17:37:00,
2013-02-23 12:43:00,41.6,32.2,29.96,NE,42,4.0,6.0,69,0.00,,CLR,0.01,669.00,VWS V14.01,2013-02-23 17:43:00,
2013-02-23 12:48:00,41.8,32.4,29.96,ENE,72,0.0,2.0,69,0.00,,CLR,0.01,767.00,VWS V14.01,2013-02-23 17:48:00,
2013-02-23 12:53:00,42.2,32.8,29.95,NE,42,5.0,6.0,69,0.00,,CLR,0.01,757.00,VWS V14.01,2013-02-23 17:53:00,
2013-02-23 12:58:00,42.3,32.1,29.95,North,349,1.0,3.0,67,0.00,,CLR,0.01,859.00,VWS V14.01,2013-02-23 17:58:00,
2013-02-23 13:03:00,42.9,33.1,29.95,NNE,28,0.0,6.0,68,0.00,,CLR,0.01,882.00,VWS V14.01,2013-02-23 18:03:00,
2013-02-23 13:08:00,43.2,33.0,29.94,ENE,69,2.0,4.0,67,0.00,,CLR,0.01,852.00,VWS V14.01,2013-02-23 18:08:00,
2013-02-23 13:13:00,43.8,33.6,29.94,ESE,104,3.0,6.0,67,0.00,,CLR,0.01,792.00,VWS V14.01,2013-02-23 18:13:00,
2013-02-23 13:18:00,44.1,33.1,29.94,NE,52,7.0,7.0,65,0.00,,CLR,0.01,728.00,VWS V14.01,2013-02-23 18:18:00,
2013-02-23 13:23:00,44.2,33.6,29.94,ENE,65,3.0,8.0,66,0.00,,CLR,0.01,730.00,VWS V14.01,2013-02-23 18:23:00,
2013-02-23 13:28:00,44.1,33.1,29.94,ESE,103,0.0,6.0,65,0.00,,CLR,0.01,718.00,VWS V14.01,2013-02-23 18:28:00,
2013-02-23 13:33:00,44.4,33.4,29.94,NE,37,3.0,6.0,65,0.00,,CLR,0.01,676.00,VWS V14.01,2013-02-23 18:33:00,
2013-02-23 13:38:00,44.7,33.3,29.92,ENE,76,2.0,5.0,64,0.00,,CLR,0.01,674.00,VWS V14.01,2013-02-23 18:38:00,
2013-02-23 13:43:00,45.1,33.7,29.92,ESE,114,0.0,5.0,64,0.00,,CLR,0.01,658.00,VWS V14.01,2013-02-23 18:43:00,
2013-02-23 13:49:00,45.5,33.7,29.92,ENE,61,5.0,6.0,63,0.00,,CLR,0.01,649.00,VWS V14.01,2013-02-23 18:49:00,
2013-02-23 13:54:00,45.7,33.8,29.90,ENE,72,0.0,6.0,63,0.00,,CLR,0.01,651.00,VWS V14.01,2013-02-23 18:54:00,
2013-02-23 13:59:00,46.0,33.7,29.90,NNE,16,2.0,5.0,62,0.00,,CLR,0.01,651.00,VWS V14.01,2013-02-23 18:59:00,
2013-02-23 14:04:00,46.1,33.4,29.90,East,83,0.0,5.0,61,0.00,,CLR,0.01,560.00,VWS V14.01,2013-02-23 19:04:00,
2013-02-23 14:09:00,46.9,34.6,29.90,North,0,2.0,5.0,62,0.00,,CLR,0.01,635.00,VWS V14.01,2013-02-23 19:09:00,
2013-02-23 14:14:00,47.2,34.5,29.90,North,349,0.0,5.0,61,0.00,,CLR,0.01,655.00,VWS V14.01,2013-02-23 19:14:00,
2013-02-23 14:19:00,47.3,34.1,29.90,North,4,0.0,2.0,60,0.00,,CLR,0.01,139.00,VWS V14.01,2013-02-23 19:19:00,
2013-02-23 14:24:00,47.3,34.1,29.89,North,11,0.0,2.0,60,0.00,,CLR,0.01,398.00,VWS V14.01,2013-02-23 19:24:00,
2013-02-23 14:29:00,47.5,34.3,29.89,ENE,78,1.0,5.0,60,0.00,,CLR,0.01,410.00,VWS V14.01,2013-02-23 19:29:00,
2013-02-23 14:34:00,47.9,34.3,29.88,ESE,104,0.0,5.0,59,0.00,,CLR,0.01,473.00,VWS V14.01,2013-02-23 19:34:00,
2013-02-23 14:39:00,48.4,34.3,29.88,ESE,104,2.0,2.0,58,0.00,,CLR,0.01,605.00,VWS V14.01,2013-02-23 19:39:00,
2013-02-23 14:45:00,48.9,34.3,29.88,East,95,0.0,3.0,57,0.00,,CLR,0.01,600.00,VWS V14.01,2013-02-23 19:45:00,
2013-02-23 14:50:00,49.2,34.6,29.87,North,356,0.0,3.0,57,0.00,,CLR,0.01,600.00,VWS V14.01,2013-02-23 19:50:00,
2013-02-23 14:55:00,49.7,35.1,29.87,East,85,0.0,3.0,57,0.00,,CLR,0.01,600.00,VWS V14.01,2013-02-23 19:55:00,
2013-02-23 15:00:00,50.0,35.4,29.87,ENE,75,0.0,6.0,57,0.00,,CLR,0.01,535.00,VWS V14.01,2013-02-23 20:00:00,
2013-02-23 15:05:00,50.3,35.7,29.86,ESE,102,0.0,6.0,57,0.00,,CLR,0.01,531.00,VWS V14.01,2013-02-23 20:05:00,
2013-02-23 15:10:00,50.3,36.1,29.86,NE,44,3.0,7.0,58,0.00,,CLR,0.01,542.00,VWS V14.01,2013-02-23 20:10:00,
2013-02-23 15:15:00,50.1,35.9,29.86,NE,35,3.0,7.0,58,0.00,,CLR,0.01,350.00,VWS V14.01,2013-02-23 20:15:00,
2013-02-23 15:20:00,50.0,35.4,29.85,ESE,103,3.0,5.0,57,0.00,,CLR,0.01,362.00,VWS V14.01,2013-02-23 20:20:00,
2013-02-23 15:25:00,49.8,35.6,29.85,ENE,71,2.0,6.0,58,0.00,,CLR,0.01,362.00,VWS V14.01,2013-02-23 20:25:00,
2013-02-23 15:30:00,49.5,35.8,29.85,NE,52,3.0,6.0,59,0.00,,CLR,0.01,575.00,VWS V14.01,2013-02-23 20:30:00,
2013-02-23 15:35:00,50.0,35.8,29.85,NNE,21,5.0,5.0,58,0.00,,CLR,0.01,568.00,VWS V14.01,2013-02-23 20:35:00,
2013-02-23 15:40:00,50.4,35.8,29.85,ENE,64,4.0,7.0,57,0.00,,CLR,0.01,399.00,VWS V14.01,2013-02-23 20:40:00,
2013-02-23 15:45:00,50.6,35.9,29.85,NE,55,4.0,4.0,57,0.00,,CLR,0.01,357.00,VWS V14.01,2013-02-23 20:45:00,
2013-02-23 15:51:00,50.7,35.6,29.85,NNE,28,1.0,8.0,56,0.00,,CLR,0.01,361.00,VWS V14.01,2013-02-23 20:51:00,
2013-02-23 15:56:00,50.9,35.8,29.85,ENE,76,1.0,5.0,56,0.00,,CLR,0.01,347.00,VWS V14.01,2013-02-23 20:56:00,
2013-02-23 16:01:00,51.0,35.0,29.85,East,86,2.0,7.0,54,0.00,,CLR,0.01,366.00,VWS V14.01,2013-02-23 21:01:00,
2013-02-23 16:06:00,51.2,35.6,29.84,East,83,2.0,3.0,55,0.00,,CLR,0.01,266.00,VWS V14.01,2013-02-23 21:06:00,
2013-02-23 16:11:00,51.2,35.6,29.84,ENE,69,0.0,7.0,55,0.00,,CLR,0.01,255.00,VWS V14.01,2013-02-23 21:11:00,
2013-02-23 16:16:00,51.3,35.7,29.84,ENE,76,5.0,5.0,55,0.00,,CLR,0.01,355.00,VWS V14.01,2013-02-23 21:16:00,
2013-02-23 16:21:00,51.5,35.4,29.84,ENE,73,1.0,5.0,54,0.00,,CLR,0.01,267.00,VWS V14.01,2013-02-23 21:21:00,
2013-02-23 16:26:00,51.8,35.7,29.84,ENE,64,0.0,5.0,54,0.00,,CLR,0.01,301.00,VWS V14.01,2013-02-23 21:26:00,
2013-02-23 16:31:00,51.8,35.7,29.84,ENE,59,1.0,7.0,54,0.00,,CLR,0.01,236.00,VWS V14.01,2013-02-23 21:31:00,
2013-02-23 16:37:00,51.9,35.8,29.83,NE,51,6.0,6.0,54,0.00,,CLR,0.01,232.00,VWS V14.01,2013-02-23 21:37:00,
2013-02-23 16:42:00,51.8,35.7,29.83,ENE,71,1.0,7.0,54,0.00,,CLR,0.01,171.00,VWS V14.01,2013-02-23 21:42:00,
2013-02-23 16:47:00,51.5,35.9,29.83,East,83,3.0,6.0,55,0.00,,CLR,0.01,206.00,VWS V14.01,2013-02-23 21:47:00,
2013-02-23 16:52:00,51.2,35.6,29.84,NE,56,1.0,6.0,55,0.00,,CLR,0.01,202.00,VWS V14.01,2013-02-23 21:52:00,
2013-02-23 16:57:00,51.2,36.1,29.84,ENE,69,4.0,4.0,56,0.00,,CLR,0.01,218.00,VWS V14.01,2013-02-23 21:57:00,
2013-02-23 17:02:00,51.0,35.4,29.84,ENE,59,6.0,7.0,55,0.00,,CLR,0.01,146.00,VWS V14.01,2013-02-23 22:02:00,
2013-02-23 17:07:00,50.7,35.6,29.84,ENE,73,2.0,5.0,56,0.00,,CLR,0.01,111.00,VWS V14.01,2013-02-23 22:07:00,
2013-02-23 17:12:00,50.4,35.3,29.84,ENE,66,3.0,7.0,56,0.00,,CLR,0.01,86.00,VWS V14.01,2013-02-23 22:12:00,
2013-02-23 17:17:00,50.1,35.0,29.84,East,92,0.0,3.0,56,0.00,,CLR,0.01,81.00,VWS V14.01,2013-02-23 22:17:00,
2013-02-23 17:23:00,50.0,35.4,29.83,ENE,72,2.0,3.0,57,0.00,,CLR,0.01,67.00,VWS V14.01,2013-02-23 22:23:00,
2013-02-23 17:28:00,49.7,35.1,29.83,ENE,73,1.0,2.0,57,0.00,,CLR,0.01,33.00,VWS V14.01,2013-02-23 22:28:00,
2013-02-23 17:33:00,49.1,35.0,29.83,ENE,71,0.0,3.0,58,0.00,,CLR,0.01,19.00,VWS V14.01,2013-02-23 22:33:00,
2013-02-23 17:38:00,48.6,34.9,29.83,NE,47,4.0,5.0,59,0.00,,CLR,0.01,14.00,VWS V14.01,2013-02-23 22:38:00,
2013-02-23 17:43:00,47.9,34.7,29.83,East,90,1.0,6.0,60,0.00,,CLR,0.01,12.00,VWS V14.01,2013-02-23 22:43:00,
2013-02-23 17:48:00,47.3,34.1,29.83,ENE,69,0.0,5.0,60,0.00,,CLR,0.01,12.00,VWS V14.01,2013-02-23 22:48:00,
2013-02-23 17:54:00,46.9,34.2,29.83,ENE,75,0.0,5.0,61,0.00,,CLR,0.01,9.00,VWS V14.01,2013-02-23 22:54:00,
2013-02-23 17:59:00,46.4,34.1,29.83,East,85,1.0,2.0,62,0.00,,CLR,0.01,5.00,VWS V14.01,2013-02-23 22:59:00,
2013-02-23 18:04:00,46.0,33.7,29.83,East,88,0.0,2.0,62,0.00,,CLR,0.01,0.00,VWS V14.01,2013-02-23 23:04:00,
2013-02-23 18:09:00,45.7,33.8,29.84,East,93,0.0,2.0,63,0.00,,CLR,0.01,0.00,VWS V14.01,2013-02-23 23:09:00,
2013-02-23 18:14:00,45.4,33.6,29.84,East,92,0.0,2.0,63,0.00,,CLR,0.01,5.00,VWS V14.01,2013-02-23 23:14:00,
2013-02-23 18:19:00,45.1,33.7,29.84,East,99,3.0,3.0,64,0.00,,CLR,0.01,0.00,VWS V14.01,2013-02-23 23:19:00,
2013-02-23 18:24:00,45.0,33.6,29.85,East,100,1.0,3.0,64,0.00,,CLR,0.01,0.00,VWS V14.01,2013-02-23 23:24:00,
2013-02-23 18:29:00,44.7,33.3,29.85,ENE,76,1.0,2.0,64,0.00,,CLR,0.01,0.00,VWS V14.01,2013-02-23 23:29:00,
2013-02-23 18:34:00,44.5,33.1,29.85,ESE,102,0.0,3.0,64,0.00,,CLR,0.01,0.00,VWS V14.01,2013-02-23 23:34:00,
2013-02-23 18:40:00,44.4,33.0,29.85,ESE,102,0.0,5.0,64,0.00,,CLR,0.01,0.00,VWS V14.01,2013-02-23 23:40:00,
2013-02-23 18:45:00,44.4,33.4,29.85,ESE,123,1.0,5.0,65,0.00,,CLR,0.01,0.00,VWS V14.01,2013-02-23 23:45:00,
2013-02-23 18:50:00,44.2,33.2,29.85,ESE,107,0.0,2.0,65,0.00,,CLR,0.01,0.00,VWS V14.01,2013-02-23 23:50:00,
2013-02-23 18:55:00,44.1,33.1,29.85,East,89,1.0,3.0,65,0.00,,CLR,0.01,0.00,VWS V14.01,2013-02-23 23:55:00,
2013-02-23 19:00:00,43.9,32.9,29.85,SE,136,0.0,2.0,65,0.00,,CLR,0.01,0.00,VWS V14.01,2013-02-24 00:00:00,
2013-02-23 19:05:00,43.9,32.9,29.85,East,99,1.0,2.0,65,0.00,,CLR,0.01,0.00,VWS V14.01,2013-02-24 00:05:00,
2013-02-23 19:10:00,43.9,32.9,29.85,SE,144,1.0,2.0,65,0.00,,CLR,0.01,0.00,VWS V14.01,2013-02-24 00:10:00,
2013-02-23 19:15:00,43.6,32.6,29.85,SE,144,0.0,2.0,65,0.00,,CLR,0.01,0.00,VWS V14.01,2013-02-24 00:15:00,
2013-02-23 19:21:00,43.5,32.5,29.85,SE,144,0.0,0.0,65,0.00,,CLR,0.01,0.00,VWS V14.01,2013-02-24 00:21:00,
2013-02-23 19:26:00,43.5,32.5,29.85,SE,144,0.0,0.0,65,0.00,,CLR,0.01,0.00,VWS V14.01,2013-02-24 00:26:00,
2013-02-23 19:31:00,43.1,32.9,29.85,SE,144,0.0,0.0,67,0.00,,CLR,0.01,0.00,VWS V14.01,2013-02-24 00:31:00,
2013-02-23 19:36:00,42.9,33.1,29.84,SE,144,0.0,0.0,68,0.00,,CLR,0.01,0.00,VWS V14.01,2013-02-24 00:36:00,
2013-02-23 19:41:00,42.6,32.8,29.84,SE,144,0.0,0.0,68,0.00,,CLR,0.01,0.00,VWS V14.01,2013-02-24 00:41:00,
2013-02-23 19:46:00,42.3,32.9,29.84,SE,144,0.0,0.0,69,0.00,,CLR,0.01,0.00,VWS V14.01,2013-02-24 00:46:00,
2013-02-23 19:51:00,42.2,32.8,29.85,SE,144,0.0,2.0,69,0.00,,CLR,0.01,0.00,VWS V14.01,2013-02-24 00:51:00,
2013-02-23 19:56:00,41.9,32.8,29.85,SE,144,1.0,1.0,70,0.00,,CLR,0.01,0.00,VWS V14.01,2013-02-24 00:56:00,
2013-02-23 20:01:00,41.6,32.6,29.85,SE,143,0.0,3.0,70,0.00,,CLR,0.01,0.00,VWS V14.01,2013-02-24 01:01:00,
2013-02-23 20:06:00,41.2,32.5,29.84,SE,143,2.0,3.0,71,0.00,,CLR,0.01,0.00,VWS V14.01,2013-02-24 01:06:00,
2013-02-23 20:11:00,40.8,32.5,29.84,SE,143,0.0,3.0,72,0.00,,CLR,0.01,0.00,VWS V14.01,2013-02-24 01:11:00,
2013-02-23 20:17:00,40.6,32.6,29.84,SE,143,0.0,0.0,73,0.00,,CLR,0.01,0.00,VWS V14.01,2013-02-24 01:17:00,
2013-02-23 20:22:00,40.2,32.2,29.84,SE,143,0.0,0.0,73,0.00,,CLR,0.01,0.00,VWS V14.01,2013-02-24 01:22:00,
2013-02-23 20:27:00,39.9,32.3,29.84,SE,143,0.0,0.0,74,0.00,,CLR,0.01,0.00,VWS V14.01,2013-02-24 01:27:00,
2013-02-23 20:32:00,39.8,32.5,29.84,SE,143,0.0,0.0,75,0.00,,CLR,0.01,0.00,VWS V14.01,2013-02-24 01:32:00,
2013-02-23 20:37:00,39.5,32.2,29.85,SE,143,0.0,0.0,75,0.00,,CLR,0.01,0.00,VWS V14.01,2013-02-24 01:37:00,
2013-02-23 20:42:00,38.9,31.7,29.85,SE,143,0.0,0.0,75,0.00,,CLR,0.01,0.00,VWS V14.01,2013-02-24 01:42:00,
2013-02-23 20:47:00,38.5,31.9,29.85,SE,143,0.0,0.0,77,0.00,,CLR,0.01,0.00,VWS V14.01,2013-02-24 01:47:00,
2013-02-23 20:52:00,38.3,31.7,29.85,SE,143,0.0,0.0,77,0.00,,CLR,0.01,0.00,VWS V14.01,2013-02-24 01:52:00,
2013-02-23 20:57:00,38.1,31.5,29.85,SE,143,0.0,0.0,77,0.00,,CLR,0.01,0.00,VWS V14.01,2013-02-24 01:57:00,
2013-02-23 21:03:00,37.9,32.0,29.85,SE,143,0.0,0.0,79,0.00,,CLR,0.01,0.00,VWS V14.01,2013-02-24 02:03:00,
2013-02-23 21:08:00,37.6,31.7,29.85,SE,143,0.0,0.0,79,0.00,,CLR,0.01,0.00,VWS V14.01,2013-02-24 02:08:00,
2013-02-23 21:13:00,37.5,31.9,29.85,SE,143,0.0,0.0,80,0.00,,CLR,0.01,0.00,VWS V14.01,2013-02-24 02:13:00,
2013-02-23 21:18:00,37.5,31.9,29.85,SE,143,0.0,0.0,80,0.00,,CLR,0.01,0.00,VWS V14.01,2013-02-24 02:18:00,
2013-02-23 21:23:00,37.3,31.7,29.85,SE,143,0.0,0.0,80,0.00,,CLR,0.01,0.00,VWS V14.01,2013-02-24 02:23:00,
2013-02-23 21:28:00,37.2,31.9,29.85,SE,143,0.0,0.0,81,0.00,,CLR,0.01,0.00,VWS V14.01,2013-02-24 02:28:00,
2013-02-23 21:33:00,37.0,31.7,29.85,SE,143,0.0,0.0,81,0.00,,CLR,0.01,0.00,VWS V14.01,2013-02-24 02:33:00,
2013-02-23 21:38:00,36.9,31.6,29.85,SE,143,0.0,0.0,81,0.00,,CLR,0.01,0.00,VWS V14.01,2013-02-24 02:38:00,
2013-02-23 21:43:00,36.8,31.5,29.85,SE,143,0.0,0.0,81,0.00,,CLR,0.01,0.00,VWS V14.01,2013-02-24 02:43:00,
2013-02-23 21:48:00,36.6,31.6,29.85,SE,143,0.0,0.0,82,0.00,,CLR,0.01,0.00,VWS V14.01,2013-02-24 02:48:00,
2013-02-23 21:53:00,36.5,31.5,29.85,SE,143,0.0,0.0,82,0.00,,CLR,0.01,0.00,VWS V14.01,2013-02-24 02:53:00,
2013-02-23 21:58:00,36.3,31.3,29.85,SE,143,0.0,0.0,82,0.00,,CLR,0.01,0.00,VWS V14.01,2013-02-24 02:58:00,
2013-02-23 22:04:00,36.0,31.0,29.85,SE,143,0.0,0.0,82,0.00,,CLR,0.01,0.00,VWS V14.01,2013-02-24 03:04:00,
2013-02-23 22:09:00,35.8,31.1,29.85,SE,143,0.0,0.0,83,0.00,,CLR,0.01,0.00,VWS V14.01,2013-02-24 03:09:00,
2013-02-23 22:14:00,35.5,30.9,29.85,SE,143,0.0,0.0,83,0.00,,CLR,0.01,0.00,VWS V14.01,2013-02-24 03:14:00,
2013-02-23 22:19:00,35.5,31.1,29.85,SE,143,0.0,2.0,84,0.00,,CLR,0.01,0.00,VWS V14.01,2013-02-24 03:19:00,
2013-02-23 22:24:00,35.3,31.0,29.84,SE,143,0.0,2.0,84,0.00,,CLR,0.01,0.00,VWS V14.01,2013-02-24 03:24:00,
2013-02-23 22:29:00,35.2,30.9,29.84,SE,143,0.0,0.0,84,0.00,,CLR,0.01,0.00,VWS V14.01,2013-02-24 03:29:00,
2013-02-23 22:34:00,34.9,30.6,29.84,SE,143,0.0,0.0,84,0.00,,CLR,0.01,0.00,VWS V14.01,2013-02-24 03:34:00,
2013-02-23 22:39:00,34.8,30.8,29.85,SE,143,0.0,0.0,85,0.00,,CLR,0.01,0.00,VWS V14.01,2013-02-24 03:39:00,
2013-02-23 22:44:00,34.6,30.6,29.85,SE,143,0.0,0.0,85,0.00,,CLR,0.01,0.00,VWS V14.01,2013-02-24 03:44:00,
2013-02-23 22:50:00,34.5,30.5,29.85,SE,143,0.0,0.0,85,0.00,,CLR,0.01,0.00,VWS V14.01,2013-02-24 03:50:00,
2013-02-23 22:54:00,32.1,29.2,29.85,SE,143,0.0,0.0,89,0.00,,CLR,0.01,0.00,VWS V14.01,2013-02-24 03:54:00,
2013-02-23 22:55:00,34.3,30.3,29.85,SE,143,0.0,0.0,85,0.00,,CLR,0.01,0.00,VWS V14.01,2013-02-24 03:55:00,
2013-02-23 22:56:00,31.9,29.0,29.85,SE,143,0.0,0.0,89,0.00,,CLR,0.01,0.00,VWS V14.01,2013-02-24 03:56:00,
2013-02-23 22:57:00,31.9,29.0,29.85,SE,143,0.0,0.0,89,0.00,,CLR,0.01,0.00,VWS V14.01,2013-02-24 03:57:00,
2013-02-23 22:58:00,31.9,29.0,29.85,SE,143,0.0,0.0,89,0.00,,CLR,0.01,0.00,VWS V14.01,2013-02-24 03:58:00,
2013-02-23 22:59:00,31.9,29.0,29.85,SE,143,0.0,0.0,89,0.00,,CLR,0.01,0.00,VWS V14.01,2013-02-24 03:59:00,
2013-02-23 23:00:00,34.0,30.0,29.85,SE,143,0.0,0.0,85,0.00,,CLR,0.01,0.00,VWS V14.01,2013-02-24 04:00:00,
2013-02-23 23:01:00,31.7,28.8,29.86,SE,143,0.0,0.0,89,0.00,,CLR,0.00,0.00,VWS V14.01,2013-02-24 04:01:00,
2013-02-23 23:02:00,31.5,28.6,29.86,SE,143,0.0,0.0,89,0.00,,CLR,0.00,0.00,VWS V14.01,2013-02-24 04:02:00,
2013-02-23 23:03:00,31.5,28.6,29.86,SE,143,0.0,0.0,89,0.00,,CLR,0.00,0.00,VWS V14.01,2013-02-24 04:03:00,
2013-02-23 23:04:00,31.5,28.6,29.86,SE,143,0.0,0.0,89,0.00,,CLR,0.00,0.00,VWS V14.01,2013-02-24 04:04:00,
2013-02-23 23:05:00,33.7,29.7,29.85,SE,143,0.0,0.0,85,0.00,,CLR,0.01,0.00,VWS V14.01,2013-02-24 04:05:00,
2013-02-23 23:06:00,31.4,28.5,29.86,SE,143,0.0,0.0,89,0.00,,CLR,0.00,0.00,VWS V14.01,2013-02-24 04:06:00,
2013-02-23 23:07:00,31.4,28.8,29.86,SE,143,0.0,0.0,90,0.00,,CLR,0.00,0.00,VWS V14.01,2013-02-24 04:07:00,
2013-02-23 23:08:00,31.4,28.8,29.86,SE,143,0.0,0.0,90,0.00,,CLR,0.00,0.00,VWS V14.01,2013-02-24 04:08:00,
2013-02-23 23:09:00,31.4,28.8,29.86,SE,143,0.0,0.0,90,0.00,,CLR,0.00,0.00,VWS V14.01,2013-02-24 04:09:00,
2013-02-23 23:10:00,33.3,29.6,29.85,SE,143,0.0,0.0,86,0.00,,CLR,0.01,0.00,VWS V14.01,2013-02-24 04:10:00,
2013-02-23 23:11:00,31.2,28.3,29.86,SE,143,0.0,0.0,89,0.00,,CLR,0.00,0.00,VWS V14.01,2013-02-24 04:11:00,
2013-02-23 23:12:00,31.1,28.2,29.86,SE,143,0.0,0.0,89,0.00,,CLR,0.00,0.00,VWS V14.01,2013-02-24 04:12:00,
2013-02-23 23:13:00,31.1,28.2,29.86,SE,143,0.0,0.0,89,0.00,,CLR,0.00,0.00,VWS V14.01,2013-02-24 04:13:00,
2013-02-23 23:15:00,33.1,29.4,29.85,SE,143,0.0,0.0,86,0.00,,CLR,0.01,0.00,VWS V14.01,2013-02-24 04:15:00,
2013-02-23 23:18:00,30.9,28.3,29.86,SE,143,0.0,0.0,90,0.00,,CLR,0.00,0.00,VWS V14.01,2013-02-24 04:18:00,
2013-02-23 23:19:00,30.9,28.3,29.86,SE,143,0.0,0.0,90,0.00,,CLR,0.00,0.00,VWS V14.01,2013-02-24 04:19:00,
2013-02-23 23:20:00,32.8,29.4,29.84,SE,143,0.0,0.0,87,0.00,,CLR,0.01,0.00,VWS V14.01,2013-02-24 04:20:00,
2013-02-23 23:23:00,30.9,28.3,29.86,SE,143,0.0,0.0,90,0.00,,CLR,0.00,0.00,VWS V14.01,2013-02-24 04:23:00,
2013-02-23 23:25:00,32.7,29.3,29.84,SE,143,0.0,0.0,87,0.00,,CLR,0.01,0.00,VWS V14.01,2013-02-24 04:25:00,
2013-02-23 23:30:00,32.7,29.5,29.84,SE,143,0.0,0.0,88,0.00,,CLR,0.01,0.00,VWS V14.01,2013-02-24 04:30:00,
2013-02-23 23:35:00,32.7,29.5,29.84,SE,143,0.0,0.0,88,0.00,,CLR,0.01,0.00,VWS V14.01,2013-02-24 04:35:00,
2013-02-23 23:41:00,32.5,29.6,29.84,SE,143,0.0,0.0,89,0.00,,CLR,0.01,0.00,VWS V14.01,2013-02-24 04:41:00,
2013-02-23 23:46:00,32.5,29.6,29.84,SE,143,0.0,0.0,89,0.00,,CLR,0.01,0.00,VWS V14.01,2013-02-24 04:46:00,
2013-02-23 23:51:00,32.4,29.5,29.85,SE,143,0.0,0.0,89,0.00,,CLR,0.01,0.00,VWS V14.01,2013-02-24 04:51:00,
2013-02-23 23:56:00,32.2,29.3,29.85,SE,143,0.0,0.0,89,0.00,,CLR,0.01,0.00,VWS V14.01,2013-02-24 04:56:00,